Regional Weather Roundup
Issued by NWS Portland, ME

Current Version | Previous Version | Text Only | Print | Product List | Glossary Off
Versions: 1 2 3 4 5 6 7 8 9 10 11 12 13 14 15 16 17 18 19 20 21 22 23 24 25 26 27 28 29 30 31 32 33 34 35 36 37 38 39 40 41 42 43 44 45 46 47 48 49 50

000
ASUS41 KGYX 191405
RWRGYX
WEATHER ROUNDUP FOR MAINE AND NEW HAMPSHIRE
NATIONAL WEATHER SERVICE GRAY ME
1000 AM EDT TUE AUG 19 2014

MEZ002-005-006-010-012-015-018-020-021-024-026-027-029-191500-
MAINE

CITY           SKY/WX    TMP DP  RH WIND       PRES   REMARKS
PORTLAND       MOSUNNY   67  54  63 VRB3      29.92S
SANFORD        SUNNY     68  48  49 E3        29.93S
BAR HARBOR     SUNNY     68  57  68 CALM      29.88S
WISCASSET      SUNNY     67  54  63 CALM      29.92S
ROCKLAND       SUNNY     66  55  68 CALM      29.89R
FRYEBURG       SUNNY     68  52  56 CALM      29.93R
LEWISTONAUBURN SUNNY     64  52  63 CALM      29.93S
AUGUSTA        SUNNY     67  54  63 VRB5      29.92R
WATERVILLE     SUNNY     66  54  63 N5        29.88R
BANGOR         MOSUNNY   67  55  65 W5        29.89R
GREENVILLE       N/A     63  54  72 NW8       29.90R
MILLINOCKET    SUNNY     69  55  60 VRB7      29.88R
HOULTON        CLOUDY    63  54  72 NW9       29.84S
PRESQUE ISLE   CLOUDY    64  54  68 N12       29.84S
FRENCHVILLE    PTSUNNY   62  54  74 NW10      29.85S
CARIBOU        MOSUNNY   66  55  67 NW12      29.84S
$$

NHZ002-005-008-009-011-012-014-191500-
NEW HAMPSHIRE

CITY           SKY/WX    TMP DP  RH WIND       PRES   REMARKS
ROCHESTER      SUNNY     68  53  58 CALM      29.92S
NASHUA         SUNNY     66  52  60 N6        29.94S
MANCHESTER     MOSUNNY   68  52  56 N5        29.91F
CONCORD        SUNNY     65  52  62 VRB3      29.93S
LACONIA        SUNNY     64  52  63 SW6       29.92S
PLYMOUTH       FAIR      64  57  79 NW7       29.93S
BERLIN         SUNNY     59  53  80 CALM      29.97R
WHITEFIELD     PTSUNNY   57  54  89 CALM      29.96S
JAFFREY        SUNNY     65  51  60 VRB3      29.95S
LEBANON        SUNNY     58  50  75 MISG      29.96R
MT WASHINGTON  MOSUNNY   45  37  76 N8          N/A
$$

VTZ005-007-008-191500-
VERMONT

CITY           SKY/WX    TMP DP  RH WIND       PRES   REMARKS
ST JOHNSBURY     N/A     52  51  97 MISG      29.95S
MONTPELIER     FOG       53  51  93 CALM      30.00S VSB 1/2
BURLINGTON     MOSUNNY   64  52  64 CALM      29.96R
$$

MAZ007-012-024-CTZ003-RIZ002-NYZ038-NYZ072-191500-
SOUTHERN NEW ENGLAND AND NY

CITY           SKY/WX    TMP DP  RH WIND       PRES   REMARKS
BOSTON         MOSUNNY   68  50  52 CALM      29.92S
WORCESTER      SUNNY     66  50  56 NW6       29.95R
NANTUCKET      SUNNY     72  57  59 MISG      29.92S
PROVIDENCE     PTSUNNY   70  50  49 VRB3      29.93F
HARTFORD       MOSUNNY   67  52  58 VRB3      29.94R
ALBANY         MOSUNNY   65  55  70 NW3       29.95S
NEW YORK CITY  MOSUNNY   71  59  65 NE13G18   29.92R
$$

ANZ081-ANZ082-ANZ150-NHZ014-MEZ023>029-191500-
COASTAL MARINE OBSERVATIONS

STATION/POSITION TIME  TEMP    WIND        PRES    WAVE
                       AIR SEA DIR/SP/G            HT/PER
                 (UTC) (F)     (DEG/KT/KT) (MB)    (FT/S)
MATINICUS ROCK   1300          280/  9/  9 1011.8R
PORTLAND WX BUOY 1350   61 63  340/  4/  4 1013.2R   1/ 9
WELLS            1300   62 58  110/  2/  3 1012.2S
ISLE OF SHOALS   1300   59     320/  4/  5 1012.6F
JEFFREYS LEDGE   1321      64                N/A     1/ 8
CASHES LEDGE BUO 1350   63 66              1012.5R   1/ 8
$$

.............KEY..............
   WCI - WIND CHILL
   TC  - TEMPERATURE IN CELSIUS
   VSB - VISIBILITY IN MILES
   HX  - HEAT INDEX
   FAIR- INDICATES FEW OR NO CLOUDS BELOW 12,000 FT, WITH NO
         SIGNIFICANT WEATHER AND/OR OBSTRUCTIONS TO VISIBILITY.




USA.gov is the U.S. government's official web portal to all federal, state and local government web resources and services.